Starlink 31292

operational
NORAD ID: 59081 Int'l Des: 2024-041 Owner: SPXS Country: US Constellation: starlink
LEOCIRCULAR

Über Starlink 31292

Beschreibung wird geladen...

Live-Position

3D-Globus wird geladen...

Nächste Überflüge

Höhenverlauf

Altitude vs Time

uPlot chart will show altitude changes over time

Zweizeiliger Elementsatz

1 59081U 24041H 25350.25054515 .00005853 00000-0 22210-3 0 9997
2 59081 43.0039 61.6653 0001544 268.9492 91.1183 15.27572417101506
Epoch: 16. Dez. 2025 • Age: 15 hours

Aktueller Status

Höhe 488.4 km
Geschwindigkeit 7.62 km/s
Subsatellitenpunkt -24.43°S, 134.9°W
Startdatum 29. Feb. 2024
Alter 1.7 years
Typ internet

Technische Details

Klassifizierung Payload
Masse 730.00 kg
Trockenmasse 700.00 kg
Gesamtmasse 730.00 kg
Länge 0.30 m
Durchmesser 4.10 m
Spannweite 29.00 m
Form Box + pan
Hersteller SPXS
Bus-Typ Starlink V2M
Phasenstatus In Orbit
Besitzer/Staat SPXS/US

Große Konstellationen

Loading constellations...